This is the latest recevied weather packets stored in our database for station/object K1PM-WX. If no packets are shown the sender has not sent any weather packets the latest 10 day(s).
| Time | Temp. | Humidity | Pressure | Rain* | Wind** | Luminosity | Snow |
|---|---|---|---|---|---|---|---|
| 1778165037 | 13.89° C | 53% | 1035 hPa | 0 mm | - | - | - |
| 1778164737 | 13.33° C | 53% | 1035 hPa | 0 mm | - | - | - |
| 1778164436 | 13.33° C | 53% | 1035 hPa | 0 mm | - | - | - |
| 1778164137 | 13.33° C | 54% | 1035 hPa | 0 mm | - | - | - |
| 1778163836 | 13.33° C | 54% | 1035 hPa | 0 mm | - | - | - |
| 1778163536 | 13.33° C | 54% | 1035 hPa | 0 mm | - | - | - |
| 1778163236 | 13.33° C | 54% | 1035 hPa | 0 mm | - | - | - |
| 1778162937 | 12.22° C | 54% | 1035 hPa | 0 mm | - | - | - |
| 1778162636 | 13.33° C | 55% | 1035 hPa | 0 mm | - | - | - |
| 1778162340 | 12.78° C | 56% | 1035 hPa | 0 mm | - | - | - |
| 1778162036 | 13.33° C | 56% | 1035 hPa | 0 mm | - | - | - |
| 1778161738 | 13.89° C | 57% | 1035 hPa | 0 mm | - | - | - |
| 1778161437 | 12.78° C | 59% | 1035 hPa | 0 mm | - | - | - |
| 1778161136 | 11.67° C | 62% | 1035 hPa | 0 mm | - | - | - |
| 1778160836 | 11.67° C | 63% | 1035 hPa | 0 mm | - | - | - |
| 1778160537 | 11.11° C | 67% | 1035 hPa | 0 mm | - | - | - |
| 1778160237 | 10° C | 69% | 1036 hPa | 0 mm | - | - | - |
| 1778159936 | 9.44° C | 72% | 1036 hPa | 0 mm | - | - | - |
| 1778159637 | 8.89° C | 76% | 1036 hPa | 0 mm | - | - | - |
| 1778159337 | 8.33° C | 77% | 1035 hPa | 0 mm | - | - | - |
| 1778159037 | 7.78° C | 78% | 1036 hPa | 0 mm | - | - | - |
| 1778158736 | 8.33° C | 79% | 1036 hPa | 0 mm | - | - | - |
| 1778158436 | 8.89° C | 82% | 1036 hPa | 0 mm | - | - | - |
| 1778158137 | 7.78° C | 88% | 1036 hPa | 0 mm | - | - | - |
| 1778157837 | 6.11° C | 90% | 1036 hPa | 0 mm | - | - | - |
* Rain latest hour (hover to see other rain measurements)
** Current wind speed in m/s (hover to see current wind gust speed)